Location: Unnamed
(51.5169°N, 0.1311°W)
Time: 06:22:56
(UTC+01:00)

Vanguard 1 - Pass Details

Date: 09 August 2024
Orbit: 649 x 3825 km, 34.2° (Epoch: 16 September)

Event Time Altitude Azimuth Distance (km) Brightness Sun altitude
Exits shadow 01:12:47 18° 222° (SW) 3,952 12.7 -22.7°
Maximum altitude 01:22:02 40° 166° (SSE) 3,640 12.4 -22.6°
Drops below altitude 10° 01:40:15 10° 107° (ESE) 6,729 14.2 -22.3°
Sets 01:46:24 0° 102° (ESE) 7,925 14.7 -22.2°
